Home   Weather   Chhapra   Past weeks

Flag for India Past Weather in Chhapra, Bihar, India — Yesterday and Last 2 Weeks

Now
59 °F

Fog.


Feels Like: 60 °F
Forecast: 53 / 72 °F
Wind: 3 mph from West

Location: Patna Airport

Current Time: Dec 9, 2016 at 9:16:54 am

Latest Report: Dec 9, 2016 at 8:30 am


Visibility: 1 mi

Pressure: 29.98 "Hg

Humidity: 82%

Dew Point: 54 °F

Location of ChhapraLocation

Past Weather in Chhapra — Graph

°F

Chhapra Temperature Yesterday

Maximum temperature yesterday: 72 °F (at 3:00 pm)
Minimum temperature yesterday: 55 °F (at 5:30 am)
Average temperature yesterday: 63 °F

High & Low Weather Summary for the Past Weeks

 TemperatureHumidityPressure
High82 °F (Nov 24, 2:00 pm)100% (Nov 24, 6:30 am)30.15 "Hg (Nov 24, 6:30 am)
Low54 °F (Dec 6, 5:30 am)47% (Nov 26, 12:00 pm)29.62 "Hg (Nov 26, 3:00 pm)
Average69 °F82%29.95 "Hg
* Reported Nov 24 6:30 am — Dec 9 6:30 am, Chhapra, Weather by CustomWeather, © 2016

Note: Actual official high and low records may vary slightly from our data, if they occured in-between our weather recording intervals... More about our weather records

Advertising

Chhapra Weather History for the Previous 24 Hours

Scroll right to see more
 ConditionsComfort  
Time TempWeatherWind HumidityBarometerVisibility
6:30 am
Fri, Dec 9
57 °FFog.5 mph100%29.95 "Hg1 mi
5:30 am57 °FFog.3 mph100%29.92 "Hg1 mi
9:30 pm
Thu, Dec 8
57 °FFog.5 mph94%29.98 "Hg1 mi
8:30 pm57 °FFog.3 mph94%29.98 "Hg1 mi
8:00 pm59 °FFog.3 mph94%29.98 "Hg1 mi
7:30 pm59 °FFog.3 mph94%29.95 "Hg1 mi
7:00 pm61 °FFog.No wind88%29.95 "Hg1 mi
6:30 pm61 °FFog.No wind88%29.95 "Hg1 mi
6:00 pm63 °FFog.No wind83%29.95 "Hg1 mi
5:30 pm63 °FFog.No wind83%29.92 "Hg1 mi
5:00 pm66 °FHaze.No wind73%29.92 "Hg1 mi
4:30 pm68 °FHaze.No wind73%29.92 "Hg1 mi
4:00 pm70 °FHaze.6 mph69%29.92 "Hg1 mi
3:30 pm72 °FHaze.6 mph65%29.92 "Hg1 mi
3:00 pm72 °FHaze.5 mph65%29.92 "Hg1 mi
2:30 pm70 °FHaze.5 mph69%29.92 "Hg1 mi
2:00 pm70 °FHaze.5 mph69%29.92 "Hg1 mi
1:30 pm68 °FHaze.6 mph73%29.95 "Hg1 mi
1:00 pm68 °FHaze.3 mph64%29.95 "Hg1 mi
12:00 pm63 °FFog.6 mph83%30.01 "Hg1 mi
11:30 am63 °FFog.8 mph83%30.01 "Hg1 mi
10:30 am61 °FFog.7 mph88%30.04 "Hg1 mi
10:00 am61 °FFog.6 mph88%30.04 "Hg1 mi
9:30 am59 °FClear.5 mph88%30.07 "Hg1 mi
Weather by CustomWeather, © 2016

See weather overviewHow to use our weather pages